"execution-timestamp","code","considered-period-start","considered-period-end","control-measure","LCL","UCL","date-last-training","retraining-flag","message","tested-column"
"2022-02-22T00:38:51.45",400,"2015-07-01","2015-12-31",41.16,0,0,"2012-01-01",1,"Current control measure: 41.16; Normal values range: 0.0 - 0.0; Current model trained on: 2012-01-01; Model needs retraining: True","Age"
"2022-02-22T00:38:51.582",200,"2015-07-02","2016-01-01",41.07,35.57,45.28,"2015-12-31",0,"Current control measure: 41.07; Normal values range: 35.57 - 45.28; Current model trained on: 2015-12-31; Model needs retraining: False","Age"
"2022-02-22T00:38:51.669",200,"2015-07-03","2016-01-02",40.96,35.57,45.28,"2015-12-31",0,"Current control measure: 40.96; Normal values range: 35.57 - 45.28; Current model trained on: 2015-12-31; Model needs retraining: False","Age"
"2022-02-22T00:38:51.757",200,"2015-07-04","2016-01-03",40.91,35.57,45.28,"2015-12-31",0,"Current control measure: 40.91; Normal values range: 35.57 - 45.28; Current model trained on: 2015-12-31; Model needs retraining: False","Age"
"2022-02-22T00:38:51.844",200,"2015-07-05","2016-01-04",40.84,35.57,45.28,"2015-12-31",0,"Current control measure: 40.84; Normal values range: 35.57 - 45.28; Current model trained on: 2015-12-31; Model needs retraining: False","Age"
"2022-02-22T00:38:51.929",200,"2015-07-06","2016-01-05",40.96,35.57,45.28,"2015-12-31",0,"Current control measure: 40.96; Normal values range: 35.57 - 45.28; Current model trained on: 2015-12-31; Model needs retraining: False","Age"
"2022-02-22T00:38:52.015",200,"2015-07-07","2016-01-06",40.96,35.57,45.28,"2015-12-31",0,"Current control measure: 40.96; Normal values range: 35.57 - 45.28; Current model trained on: 2015-12-31; Model needs retraining: False","Age"
"2022-02-22T00:38:52.099",200,"2015-07-08","2016-01-07",40.88,35.57,45.28,"2015-12-31",0,"Current control measure: 40.88; Normal values range: 35.57 - 45.28; Current model trained on: 2015-12-31; Model needs retraining: False","Age"
"2022-02-22T00:38:52.181",200,"2015-07-09","2016-01-08",40.79,35.57,45.28,"2015-12-31",0,"Current control measure: 40.79; Normal values range: 35.57 - 45.28; Current model trained on: 2015-12-31; Model needs retraining: False","Age"
"2022-02-22T00:38:52.265",200,"2015-07-10","2016-01-09",40.82,35.57,45.28,"2015-12-31",0,"Current control measure: 40.82; Normal values range: 35.57 - 45.28; Current model trained on: 2015-12-31; Model needs retraining: False","Age"
"2022-02-22T00:38:52.352",200,"2015-07-11","2016-01-10",40.8,35.57,45.28,"2015-12-31",0,"Current control measure: 40.8; Normal values range: 35.57 - 45.28; Current model trained on: 2015-12-31; Model needs retraining: False","Age"
"2022-02-22T00:38:52.436",200,"2015-07-12","2016-01-11",40.8,35.57,45.28,"2015-12-31",0,"Current control measure: 40.8; Normal values range: 35.57 - 45.28; Current model trained on: 2015-12-31; Model needs retraining: False","Age"
"2022-02-22T00:38:52.518",200,"2015-07-13","2016-01-12",40.76,35.57,45.28,"2015-12-31",0,"Current control measure: 40.76; Normal values range: 35.57 - 45.28; Current model trained on: 2015-12-31; Model needs retraining: False","Age"
"2022-02-22T00:38:52.604",200,"2015-07-14","2016-01-13",40.78,35.57,45.28,"2015-12-31",0,"Current control measure: 40.78; Normal values range: 35.57 - 45.28; Current model trained on: 2015-12-31; Model needs retraining: False","Age"
"2022-02-22T00:38:52.698",200,"2015-07-15","2016-01-14",40.71,35.57,45.28,"2015-12-31",0,"Current control measure: 40.71; Normal values range: 35.57 - 45.28; Current model trained on: 2015-12-31; Model needs retraining: False","Age"
"2022-02-22T00:38:52.781",200,"2015-07-16","2016-01-15",40.71,35.57,45.28,"2015-12-31",0,"Current control measure: 40.71; Normal values range: 35.57 - 45.28; Current model trained on: 2015-12-31; Model needs retraining: False","Age"
"2022-02-22T00:38:52.878",200,"2015-07-17","2016-01-16",40.65,35.57,45.28,"2015-12-31",0,"Current control measure: 40.65; Normal values range: 35.57 - 45.28; Current model trained on: 2015-12-31; Model needs retraining: False","Age"
"2022-02-22T00:38:52.984",200,"2015-07-18","2016-01-17",40.63,35.57,45.28,"2015-12-31",0,"Current control measure: 40.63; Normal values range: 35.57 - 45.28; Current model trained on: 2015-12-31; Model needs retraining: False","Age"
"2022-02-22T00:38:53.069",200,"2015-07-19","2016-01-18",40.76,35.57,45.28,"2015-12-31",0,"Current control measure: 40.76; Normal values range: 35.57 - 45.28; Current model trained on: 2015-12-31; Model needs retraining: False","Age"
"2022-02-22T00:38:53.157",200,"2015-07-20","2016-01-19",40.88,35.57,45.28,"2015-12-31",0,"Current control measure: 40.88; Normal values range: 35.57 - 45.28; Current model trained on: 2015-12-31; Model needs retraining: False","Age"
"2022-02-22T00:38:53.245",200,"2015-07-21","2016-01-20",40.89,35.57,45.28,"2015-12-31",0,"Current control measure: 40.89; Normal values range: 35.57 - 45.28; Current model trained on: 2015-12-31; Model needs retraining: False","Age"
"2022-02-22T00:38:53.332",200,"2015-07-22","2016-01-21",40.91,35.57,45.28,"2015-12-31",0,"Current control measure: 40.91; Normal values range: 35.57 - 45.28; Current model trained on: 2015-12-31; Model needs retraining: False","Age"
"2022-02-22T00:38:53.418",200,"2015-07-23","2016-01-22",40.83,35.57,45.28,"2015-12-31",0,"Current control measure: 40.83; Normal values range: 35.57 - 45.28; Current model trained on: 2015-12-31; Model needs retraining: False","Age"
"2022-02-22T00:38:53.506",200,"2015-07-24","2016-01-23",40.79,35.57,45.28,"2015-12-31",0,"Current control measure: 40.79; Normal values range: 35.57 - 45.28; Current model trained on: 2015-12-31; Model needs retraining: False","Age"
"2022-02-22T00:38:53.592",200,"2015-07-25","2016-01-24",40.65,35.57,45.28,"2015-12-31",0,"Current control measure: 40.65; Normal values range: 35.57 - 45.28; Current model trained on: 2015-12-31; Model needs retraining: False","Age"
"2022-02-22T00:38:53.683",200,"2015-07-26","2016-01-25",40.7,35.57,45.28,"2015-12-31",0,"Current control measure: 40.7; Normal values range: 35.57 - 45.28; Current model trained on: 2015-12-31; Model needs retraining: False","Age"
"2022-02-22T00:38:53.774",200,"2015-07-27","2016-01-26",40.71,35.57,45.28,"2015-12-31",0,"Current control measure: 40.71; Normal values range: 35.57 - 45.28; Current model trained on: 2015-12-31; Model needs retraining: False","Age"
"2022-02-22T00:38:53.866",200,"2015-07-28","2016-01-27",40.57,35.57,45.28,"2015-12-31",0,"Current control measure: 40.57; Normal values range: 35.57 - 45.28; Current model trained on: 2015-12-31; Model needs retraining: False","Age"
"2022-02-22T00:38:53.953",200,"2015-07-29","2016-01-28",40.6,35.57,45.28,"2015-12-31",0,"Current control measure: 40.6; Normal values range: 35.57 - 45.28; Current model trained on: 2015-12-31; Model needs retraining: False","Age"
"2022-02-22T00:38:54.038",200,"2015-07-30","2016-01-29",40.59,35.57,45.28,"2015-12-31",0,"Current control measure: 40.59; Normal values range: 35.57 - 45.28; Current model trained on: 2015-12-31; Model needs retraining: False","Age"
"2022-02-22T00:38:54.124",200,"2015-07-31","2016-01-30",40.4,35.57,45.28,"2015-12-31",0,"Current control measure: 40.4; Normal values range: 35.57 - 45.28; Current model trained on: 2015-12-31; Model needs retraining: False","Age"
"2022-02-22T00:38:54.217",200,"2015-08-01","2016-01-31",40.37,35.57,45.28,"2015-12-31",0,"Current control measure: 40.37; Normal values range: 35.57 - 45.28; Current model trained on: 2015-12-31; Model needs retraining: False","Age"
"2022-02-22T00:38:54.294",200,"2015-08-02","2016-02-01",40.43,35.57,45.28,"2015-12-31",0,"Current control measure: 40.43; Normal values range: 35.57 - 45.28; Current model trained on: 2015-12-31; Model needs retraining: False","Age"
"2022-02-22T00:38:54.387",200,"2015-08-03","2016-02-02",40.28,35.57,45.28,"2015-12-31",0,"Current control measure: 40.28; Normal values range: 35.57 - 45.28; Current model trained on: 2015-12-31; Model needs retraining: False","Age"
"2022-02-22T00:38:54.494",200,"2015-08-04","2016-02-03",40.25,35.57,45.28,"2015-12-31",0,"Current control measure: 40.25; Normal values range: 35.57 - 45.28; Current model trained on: 2015-12-31; Model needs retraining: False","Age"
"2022-02-22T00:38:54.581",200,"2015-08-05","2016-02-04",40.45,35.57,45.28,"2015-12-31",0,"Current control measure: 40.45; Normal values range: 35.57 - 45.28; Current model trained on: 2015-12-31; Model needs retraining: False","Age"
"2022-02-22T00:38:54.661",200,"2015-08-06","2016-02-05",40.3,35.57,45.28,"2015-12-31",0,"Current control measure: 40.3; Normal values range: 35.57 - 45.28; Current model trained on: 2015-12-31; Model needs retraining: False","Age"
"2022-02-22T00:38:54.742",200,"2015-08-07","2016-02-06",40.39,35.57,45.28,"2015-12-31",0,"Current control measure: 40.39; Normal values range: 35.57 - 45.28; Current model trained on: 2015-12-31; Model needs retraining: False","Age"
"2022-02-22T00:38:54.82",200,"2015-08-08","2016-02-07",40.38,35.57,45.28,"2015-12-31",0,"Current control measure: 40.38; Normal values range: 35.57 - 45.28; Current model trained on: 2015-12-31; Model needs retraining: False","Age"
"2022-02-22T00:38:54.902",200,"2015-08-09","2016-02-08",40.31,35.57,45.28,"2015-12-31",0,"Current control measure: 40.31; Normal values range: 35.57 - 45.28; Current model trained on: 2015-12-31; Model needs retraining: False","Age"
"2022-02-22T00:38:54.984",200,"2015-08-10","2016-02-09",40.39,35.57,45.28,"2015-12-31",0,"Current control measure: 40.39; Normal values range: 35.57 - 45.28; Current model trained on: 2015-12-31; Model needs retraining: False","Age"
"2022-02-22T00:38:55.071",200,"2015-08-11","2016-02-10",40.16,35.57,45.28,"2015-12-31",0,"Current control measure: 40.16; Normal values range: 35.57 - 45.28; Current model trained on: 2015-12-31; Model needs retraining: False","Age"
"2022-02-22T00:38:55.156",200,"2015-08-12","2016-02-11",39.97,35.57,45.28,"2015-12-31",0,"Current control measure: 39.97; Normal values range: 35.57 - 45.28; Current model trained on: 2015-12-31; Model needs retraining: False","Age"
"2022-02-22T00:38:55.242",200,"2015-08-13","2016-02-12",39.95,35.57,45.28,"2015-12-31",0,"Current control measure: 39.95; Normal values range: 35.57 - 45.28; Current model trained on: 2015-12-31; Model needs retraining: False","Age"
"2022-02-22T00:38:55.329",200,"2015-08-14","2016-02-13",39.89,35.57,45.28,"2015-12-31",0,"Current control measure: 39.89; Normal values range: 35.57 - 45.28; Current model trained on: 2015-12-31; Model needs retraining: False","Age"
"2022-02-22T00:38:55.409",200,"2015-08-15","2016-02-14",39.82,35.57,45.28,"2015-12-31",0,"Current control measure: 39.82; Normal values range: 35.57 - 45.28; Current model trained on: 2015-12-31; Model needs retraining: False","Age"
"2022-02-22T00:38:55.494",200,"2015-08-16","2016-02-15",39.89,35.57,45.28,"2015-12-31",0,"Current control measure: 39.89; Normal values range: 35.57 - 45.28; Current model trained on: 2015-12-31; Model needs retraining: False","Age"
"2022-02-22T00:38:55.582",200,"2015-08-17","2016-02-16",39.78,35.57,45.28,"2015-12-31",0,"Current control measure: 39.78; Normal values range: 35.57 - 45.28; Current model trained on: 2015-12-31; Model needs retraining: False","Age"
"2022-02-22T00:38:55.671",200,"2015-08-18","2016-02-17",39.74,35.57,45.28,"2015-12-31",0,"Current control measure: 39.74; Normal values range: 35.57 - 45.28; Current model trained on: 2015-12-31; Model needs retraining: False","Age"
"2022-02-22T00:38:55.753",200,"2015-08-19","2016-02-18",39.8,35.57,45.28,"2015-12-31",0,"Current control measure: 39.8; Normal values range: 35.57 - 45.28; Current model trained on: 2015-12-31; Model needs retraining: False","Age"
"2022-02-22T00:38:55.845",200,"2015-08-20","2016-02-19",39.86,35.57,45.28,"2015-12-31",0,"Current control measure: 39.86; Normal values range: 35.57 - 45.28; Current model trained on: 2015-12-31; Model needs retraining: False","Age"
"2022-02-22T00:38:55.951",200,"2015-08-21","2016-02-20",39.93,35.57,45.28,"2015-12-31",0,"Current control measure: 39.93; Normal values range: 35.57 - 45.28; Current model trained on: 2015-12-31; Model needs retraining: False","Age"
"2022-02-22T00:38:56.048",200,"2015-08-22","2016-02-21",39.73,35.57,45.28,"2015-12-31",0,"Current control measure: 39.73; Normal values range: 35.57 - 45.28; Current model trained on: 2015-12-31; Model needs retraining: False","Age"
"2022-02-22T00:38:56.143",200,"2015-08-23","2016-02-22",39.71,35.57,45.28,"2015-12-31",0,"Current control measure: 39.71; Normal values range: 35.57 - 45.28; Current model trained on: 2015-12-31; Model needs retraining: False","Age"
"2022-02-22T00:38:56.246",200,"2015-08-24","2016-02-23",39.62,35.57,45.28,"2015-12-31",0,"Current control measure: 39.62; Normal values range: 35.57 - 45.28; Current model trained on: 2015-12-31; Model needs retraining: False","Age"
"2022-02-22T00:38:56.342",200,"2015-08-25","2016-02-24",39.64,35.57,45.28,"2015-12-31",0,"Current control measure: 39.64; Normal values range: 35.57 - 45.28; Current model trained on: 2015-12-31; Model needs retraining: False","Age"
"2022-02-22T00:38:56.453",200,"2015-08-26","2016-02-25",39.63,35.57,45.28,"2015-12-31",0,"Current control measure: 39.63; Normal values range: 35.57 - 45.28; Current model trained on: 2015-12-31; Model needs retraining: False","Age"
"2022-02-22T00:38:56.542",200,"2015-08-27","2016-02-26",39.58,35.57,45.28,"2015-12-31",0,"Current control measure: 39.58; Normal values range: 35.57 - 45.28; Current model trained on: 2015-12-31; Model needs retraining: False","Age"
"2022-02-22T00:38:56.632",200,"2015-08-28","2016-02-27",39.7,35.57,45.28,"2015-12-31",0,"Current control measure: 39.7; Normal values range: 35.57 - 45.28; Current model trained on: 2015-12-31; Model needs retraining: False","Age"
"2022-02-22T00:38:56.74",200,"2015-08-29","2016-02-28",39.78,35.57,45.28,"2015-12-31",0,"Current control measure: 39.78; Normal values range: 35.57 - 45.28; Current model trained on: 2015-12-31; Model needs retraining: False","Age"
"2022-02-22T00:38:56.828",200,"2015-09-01","2016-02-29",39.77,35.57,45.28,"2015-12-31",0,"Current control measure: 39.77; Normal values range: 35.57 - 45.28; Current model trained on: 2015-12-31; Model needs retraining: False","Age"
"2022-02-22T00:38:56.919",200,"2015-09-02","2016-03-01",39.74,35.57,45.28,"2015-12-31",0,"Current control measure: 39.74; Normal values range: 35.57 - 45.28; Current model trained on: 2015-12-31; Model needs retraining: False","Age"
"2022-02-22T00:38:57.028",200,"2015-09-03","2016-03-02",39.49,35.57,45.28,"2015-12-31",0,"Current control measure: 39.49; Normal values range: 35.57 - 45.28; Current model trained on: 2015-12-31; Model needs retraining: False","Age"
"2022-02-22T00:38:57.118",200,"2015-09-04","2016-03-03",39.55,35.57,45.28,"2015-12-31",0,"Current control measure: 39.55; Normal values range: 35.57 - 45.28; Current model trained on: 2015-12-31; Model needs retraining: False","Age"
"2022-02-22T00:38:57.21",200,"2015-09-05","2016-03-04",39.36,35.57,45.28,"2015-12-31",0,"Current control measure: 39.36; Normal values range: 35.57 - 45.28; Current model trained on: 2015-12-31; Model needs retraining: False","Age"
"2022-02-22T00:38:57.319",200,"2015-09-06","2016-03-05",39.37,35.57,45.28,"2015-12-31",0,"Current control measure: 39.37; Normal values range: 35.57 - 45.28; Current model trained on: 2015-12-31; Model needs retraining: False","Age"
"2022-02-22T00:38:57.406",200,"2015-09-07","2016-03-06",39.51,35.57,45.28,"2015-12-31",0,"Current control measure: 39.51; Normal values range: 35.57 - 45.28; Current model trained on: 2015-12-31; Model needs retraining: False","Age"
"2022-02-22T00:38:57.498",200,"2015-09-08","2016-03-07",39.44,35.57,45.28,"2015-12-31",0,"Current control measure: 39.44; Normal values range: 35.57 - 45.28; Current model trained on: 2015-12-31; Model needs retraining: False","Age"
"2022-02-22T00:38:57.607",200,"2015-09-09","2016-03-08",39.59,35.57,45.28,"2015-12-31",0,"Current control measure: 39.59; Normal values range: 35.57 - 45.28; Current model trained on: 2015-12-31; Model needs retraining: False","Age"
"2022-02-22T00:38:57.695",200,"2015-09-10","2016-03-09",39.42,35.57,45.28,"2015-12-31",0,"Current control measure: 39.42; Normal values range: 35.57 - 45.28; Current model trained on: 2015-12-31; Model needs retraining: False","Age"
"2022-02-22T00:38:57.788",200,"2015-09-11","2016-03-10",39.45,35.57,45.28,"2015-12-31",0,"Current control measure: 39.45; Normal values range: 35.57 - 45.28; Current model trained on: 2015-12-31; Model needs retraining: False","Age"
"2022-02-22T00:38:57.889",200,"2015-09-12","2016-03-11",39.58,35.57,45.28,"2015-12-31",0,"Current control measure: 39.58; Normal values range: 35.57 - 45.28; Current model trained on: 2015-12-31; Model needs retraining: False","Age"
"2022-02-22T00:38:57.97",200,"2015-09-13","2016-03-12",39.54,35.57,45.28,"2015-12-31",0,"Current control measure: 39.54; Normal values range: 35.57 - 45.28; Current model trained on: 2015-12-31; Model needs retraining: False","Age"
"2022-02-22T00:38:58.063",200,"2015-09-14","2016-03-13",39.48,35.57,45.28,"2015-12-31",0,"Current control measure: 39.48; Normal values range: 35.57 - 45.28; Current model trained on: 2015-12-31; Model needs retraining: False","Age"
"2022-02-22T00:38:58.178",200,"2015-09-15","2016-03-14",39.65,35.57,45.28,"2015-12-31",0,"Current control measure: 39.65; Normal values range: 35.57 - 45.28; Current model trained on: 2015-12-31; Model needs retraining: False","Age"
"2022-02-22T00:38:58.266",200,"2015-09-16","2016-03-15",39.74,35.57,45.28,"2015-12-31",0,"Current control measure: 39.74; Normal values range: 35.57 - 45.28; Current model trained on: 2015-12-31; Model needs retraining: False","Age"
"2022-02-22T00:38:58.356",200,"2015-09-17","2016-03-16",39.59,35.57,45.28,"2015-12-31",0,"Current control measure: 39.59; Normal values range: 35.57 - 45.28; Current model trained on: 2015-12-31; Model needs retraining: False","Age"
"2022-02-22T00:38:58.463",200,"2015-09-18","2016-03-17",39.57,35.57,45.28,"2015-12-31",0,"Current control measure: 39.57; Normal values range: 35.57 - 45.28; Current model trained on: 2015-12-31; Model needs retraining: False","Age"
"2022-02-22T00:38:58.549",200,"2015-09-19","2016-03-18",39.62,35.57,45.28,"2015-12-31",0,"Current control measure: 39.62; Normal values range: 35.57 - 45.28; Current model trained on: 2015-12-31; Model needs retraining: False","Age"
"2022-02-22T00:38:58.642",200,"2015-09-20","2016-03-19",39.69,35.57,45.28,"2015-12-31",0,"Current control measure: 39.69; Normal values range: 35.57 - 45.28; Current model trained on: 2015-12-31; Model needs retraining: False","Age"
"2022-02-22T00:38:58.754",200,"2015-09-21","2016-03-20",39.82,35.57,45.28,"2015-12-31",0,"Current control measure: 39.82; Normal values range: 35.57 - 45.28; Current model trained on: 2015-12-31; Model needs retraining: False","Age"
"2022-02-22T00:38:58.846",200,"2015-09-22","2016-03-21",39.87,35.57,45.28,"2015-12-31",0,"Current control measure: 39.87; Normal values range: 35.57 - 45.28; Current model trained on: 2015-12-31; Model needs retraining: False","Age"
"2022-02-22T00:38:58.939",200,"2015-09-23","2016-03-22",39.76,35.57,45.28,"2015-12-31",0,"Current control measure: 39.76; Normal values range: 35.57 - 45.28; Current model trained on: 2015-12-31; Model needs retraining: False","Age"
"2022-02-22T00:38:59.05",200,"2015-09-24","2016-03-23",39.84,35.57,45.28,"2015-12-31",0,"Current control measure: 39.84; Normal values range: 35.57 - 45.28; Current model trained on: 2015-12-31; Model needs retraining: False","Age"
"2022-02-22T00:38:59.153",200,"2015-09-25","2016-03-24",39.96,35.57,45.28,"2015-12-31",0,"Current control measure: 39.96; Normal values range: 35.57 - 45.28; Current model trained on: 2015-12-31; Model needs retraining: False","Age"
"2022-02-22T00:38:59.251",200,"2015-09-26","2016-03-25",39.94,35.57,45.28,"2015-12-31",0,"Current control measure: 39.94; Normal values range: 35.57 - 45.28; Current model trained on: 2015-12-31; Model needs retraining: False","Age"
"2022-02-22T00:38:59.36",200,"2015-09-27","2016-03-26",39.91,35.57,45.28,"2015-12-31",0,"Current control measure: 39.91; Normal values range: 35.57 - 45.28; Current model trained on: 2015-12-31; Model needs retraining: False","Age"
"2022-02-22T00:38:59.455",200,"2015-09-28","2016-03-27",39.91,35.57,45.28,"2015-12-31",0,"Current control measure: 39.91; Normal values range: 35.57 - 45.28; Current model trained on: 2015-12-31; Model needs retraining: False","Age"
"2022-02-22T00:38:59.568",200,"2015-09-29","2016-03-28",39.91,35.57,45.28,"2015-12-31",0,"Current control measure: 39.91; Normal values range: 35.57 - 45.28; Current model trained on: 2015-12-31; Model needs retraining: False","Age"
"2022-02-22T00:38:59.66",200,"2015-09-30","2016-03-29",39.97,35.57,45.28,"2015-12-31",0,"Current control measure: 39.97; Normal values range: 35.57 - 45.28; Current model trained on: 2015-12-31; Model needs retraining: False","Age"
"2022-02-22T00:38:59.754",200,"2015-09-30","2016-03-30",40.08,35.57,45.28,"2015-12-31",0,"Current control measure: 40.08; Normal values range: 35.57 - 45.28; Current model trained on: 2015-12-31; Model needs retraining: False","Age"
"2022-02-22T00:38:59.868",200,"2015-10-01","2016-03-31",39.97,35.57,45.28,"2015-12-31",0,"Current control measure: 39.97; Normal values range: 35.57 - 45.28; Current model trained on: 2015-12-31; Model needs retraining: False","Age"
"2022-02-22T00:38:59.965",200,"2015-10-02","2016-04-01",40.05,35.57,45.28,"2015-12-31",0,"Current control measure: 40.05; Normal values range: 35.57 - 45.28; Current model trained on: 2015-12-31; Model needs retraining: False","Age"
"2022-02-22T00:39:00.064",200,"2015-10-03","2016-04-02",39.92,35.57,45.28,"2015-12-31",0,"Current control measure: 39.92; Normal values range: 35.57 - 45.28; Current model trained on: 2015-12-31; Model needs retraining: False","Age"
"2022-02-22T00:39:00.193",200,"2015-10-04","2016-04-03",39.89,35.57,45.28,"2015-12-31",0,"Current control measure: 39.89; Normal values range: 35.57 - 45.28; Current model trained on: 2015-12-31; Model needs retraining: False","Age"
"2022-02-22T00:39:00.308",200,"2015-10-05","2016-04-04",39.97,35.57,45.28,"2015-12-31",0,"Current control measure: 39.97; Normal values range: 35.57 - 45.28; Current model trained on: 2015-12-31; Model needs retraining: False","Age"
"2022-02-22T00:39:00.404",200,"2015-10-06","2016-04-05",40.03,35.57,45.28,"2015-12-31",0,"Current control measure: 40.03; Normal values range: 35.57 - 45.28; Current model trained on: 2015-12-31; Model needs retraining: False","Age"
"2022-02-22T00:39:00.534",200,"2015-10-07","2016-04-06",39.89,35.57,45.28,"2015-12-31",0,"Current control measure: 39.89; Normal values range: 35.57 - 45.28; Current model trained on: 2015-12-31; Model needs retraining: False","Age"
"2022-02-22T00:39:00.646",200,"2015-10-08","2016-04-07",39.95,35.57,45.28,"2015-12-31",0,"Current control measure: 39.95; Normal values range: 35.57 - 45.28; Current model trained on: 2015-12-31; Model needs retraining: False","Age"
"2022-02-22T00:39:00.749",200,"2015-10-09","2016-04-08",39.9,35.57,45.28,"2015-12-31",0,"Current control measure: 39.9; Normal values range: 35.57 - 45.28; Current model trained on: 2015-12-31; Model needs retraining: False","Age"
"2022-02-22T00:39:00.86",200,"2015-10-10","2016-04-09",40,35.57,45.28,"2015-12-31",0,"Current control measure: 40.0; Normal values range: 35.57 - 45.28; Current model trained on: 2015-12-31; Model needs retraining: False","Age"
"2022-02-22T00:39:00.962",200,"2015-10-11","2016-04-10",40.03,35.57,45.28,"2015-12-31",0,"Current control measure: 40.03; Normal values range: 35.57 - 45.28; Current model trained on: 2015-12-31; Model needs retraining: False","Age"